Wind_Speed
81 80 80 80 85 88 87 88 94 93 93 99 94 91 96 95 95 93 96 97 96 95 97 88 94 89 94 99 116 110 107 112 97 86 75 62 53 49
76 77 79 85 87 87 90 94 95 98 99 90 93 94 96 97 99 102 105 105 98 99 93 101 103 106 111 119 121 127 123 109 87 71 57 50 51 54
82 85 85 91 94 98 102 97 99 89 87 93 97 97 103 102 101 110 105 105 104 98 108 109 113 116 122 126 129 132 108 83 69 55 54 58 61 64
91 91 92 90 90 91 100 96 91 94 99 98 106 108 108 112 112 112 115 105 108 111 112 115 123 123 125 129 135 109 86 61 56 63 66 70 71 73
94 91 94 90 88 87 93 96 106 106 107 106 109 113 112 112 116 111 118 115 114 116 119 125 127 128 136 140 125 96 77 74 80 75 80 82 84 86
99 101 100 97 96 97 96 104 113 106 110 111 113 112 115 114 117 123 113 113 116 119 127 127 135 140 145 136 99 99 88 90 91 93 94 96 96 96
91 96 98 100 103 106 104 105 109 113 116 107 113 113 116 115 109 114 120 117 125 127 131 136 142 147 130 102 98 103 104 103 105 106 106 103 103 101
92 92 92 101 101 107 108 106 104 111 109 111 110 111 110 114 116 122 125 125 126 136 135 146 140 133 100 109 107 112 114 115 113 110 108 105 101 98
95 92 98 97 93 88 96 97 101 108 108 103 102 109 107 111 119 126 129 132 134 143 143 138 124 97 110 114 118 122 123 121 117 112 107 102 99 97
97 91 91 89 91 92 96 97 99 103 105 101 111 116 122 128 124 133 134 140 143 141 133 100 101 108 114 121 127 131 128 123 115 108 104 101 98 94
106 112 107 99 93 98 101 99 104 108 115 116 114 119 128 128 127 136 142 135 134 123 109 108 110 113 119 126 133 134 127 119 112 108 104 97 88 81
100 108 114 113 105 98 102 109 108 112 113 120 120 122 127 133 141 142 135 135 108 106 112 112 118 122 122 129 133 129 122 116 112 105 98 90 83 75
88 99 110 114 114 117 118 116 113 113 125 121 130 134 140 140 131 118 105 103 110 114 117 119 122 125 127 122 121 121 117 114 109 103 97 88 76 67
74 83 94 100 101 109 115 121 122 122 124 126 123 106 94 90 93 98 106 113 117 120 123 123 122 123 122 120 119 115 110 107 101 97 88 79 70 65
71 76 83 94 103 108 106 103 103 103 94 88 88 90 93 96 101 107 113 117 123 124 122 120 120 119 119 117 113 109 104 101 91 82 76 70 64 62
80 77 77 79 80 81 81 80 83 88 90 93 94 96 99 103 110 113 116 119 120 122 122 118 118 117 115 111 105 100 93 84 77 70 68 66 60 57
84 83 84 85 87 88 87 88 90 93 95 97 98 101 105 109 111 113 116 116 115 114 118 121 116 110 108 103 96 87 79 74 66 61 62 62 55 55
86 89 89 90 91 92 92 92 94 96 98 100 102 104 104 106 108 112 113 112 110 114 116 113 109 108 104 96 79 70 67 63 61 57 55 55 54 49
88 89 91 92 93 93 94 96 98 99 100 101 100 97 100 104 107 108 109 106 110 113 111 105 104 98 90 83 77 60 62 59 58 55 51 48 48 46
89 90 90 91 92 94 95 96 96 97 97 96 97 98 100 103 104 103 106 105 107 107 107 103 93 82 75 68 65 64 54 57 56 54 52 45 42 43
89 89 91 91 92 93 93 94 95 96 97 96 96 99 100 98 100 101 100 104 103 102 99 90 80 71 63 60 57 57 54 49 54 54 54 47 42 37
90 92 92 92 93 92 93 94 95 97 96 94 93 94 94 96 98 97 98 99 99 92 84 77 68 61 56 54 53 52 53 49 44 45 49 48 45 39
92 92 92 92 93 93 93 93 93 89 86 88 90 93 94 96 94 95 95 93 86 79 73 66 59 54 51 51 49 49 49 47 45 41 40 45 41 38
Wind_Direction
279 282 282 282 282 282 287 286 289 291 292 294 294 295 296 297 298 297 297 297 298 299 298 302 313 313 318 321 322 318 317 314 310 302 300 293 287 286
276 277 277 280 280 285 287 286 288 289 290 289 290 291 291 296 295 295 297 297 297 300 297 311 318 317 320 320 320 319 314 312 306 299 290 283 285 287
275 283 278 276 278 282 281 283 289 289 283 286 286 288 290 297 292 293 294 298 305 310 313 314 315 317 318 320 318 317 313 306 301 295 287 287 285 285
281 284 285 281 282 282 282 285 286 285 284 281 284 289 291 292 296 298 298 300 307 310 311 311 313 314 316 312 315 312 310 302 300 295 290 287 284 283
279 278 279 279 277 277 274 278 285 282 283 284 285 289 291 292 295 298 299 301 307 308 310 312 313 311 312 314 312 306 302 298 297 295 293 290 287 285
273 272 273 273 275 273 272 277 282 279 282 285 287 289 291 294 294 296 302 302 304 306 307 309 310 312 310 309 305 306 303 301 298 296 293 291 288 287
269 270 269 267 267 269 271 276 277 279 282 282 285 288 290 293 296 297 299 300 301 305 306 307 308 307 311 303 300 303 302 300 298 296 294 294 295 294
265 265 266 265 267 270 274 275 276 278 281 281 284 287 289 291 295 293 296 298 299 304 303 307 306 306 302 304 302 300 300 299 298 299 301 299 295 291
267 263 264 266 264 269 270 271 274 277 279 282 283 285 288 287 290 293 295 299 300 303 303 303 304 300 302 302 301 299 299 299 302 303 301 298 294 291
261 260 260 262 266 268 270 271 271 273 275 280 281 282 286 290 289 294 295 300 302 304 304 301 300 301 301 300 299 299 300 303 305 303 300 297 294 292
264 263 262 262 265 266 266 268 270 273 278 280 281 281 285 288 291 295 299 300 303 300 296 299 299 299 300 300 299 300 304 306 305 303 300 297 296 296
265 262 261 263 267 266 267 270 270 273 277 281 282 282 286 290 292 294 295 299 297 295 295 299 299 299 300 299 300 303 306 307 305 302 301 302 301 299
265 263 263 266 267 268 269 270 272 273 279 283 285 289 291 292 294 291 292 293 293 295 297 298 298 299 299 300 301 304 306 305 304 305 306 304 303 299
273 270 269 272 275 273 273 275 275 280 283 286 288 289 292 293 294 294 292 292 295 297 298 299 299 300 301 302 305 306 306 305 305 305 304 304 302 299
270 271 271 271 273 273 279 278 278 280 281 285 287 290 292 293 293 292 294 297 298 299 299 299 300 301 303 306 306 307 307 305 305 305 304 301 301 299
269 269 271 274 275 275 277 278 279 280 283 286 288 291 292 293 293 296 298 298 300 301 300 301 302 306 306 307 307 308 306 304 304 304 301 300 301 299
265 265 266 268 271 274 276 278 281 283 285 287 289 291 292 294 298 298 299 299 300 300 300 302 306 307 308 308 307 308 306 304 304 303 302 301 302 300
267 269 270 271 273 275 278 280 282 284 286 288 290 293 296 299 300 300 300 299 300 299 301 305 307 309 309 307 307 307 304 303 304 303 301 302 302 300
269 271 272 274 276 278 280 281 283 287 290 291 294 299 300 300 301 299 299 299 299 300 304 307 309 309 308 306 307 309 306 306 305 305 304 305 303 303
271 273 275 277 278 280 282 285 288 289 292 296 298 300 301 300 299 298 298 301 301 304 306 308 308 308 307 305 306 308 309 308 308 309 308 309 309 308
274 277 278 279 280 283 285 287 290 293 296 299 301 301 300 298 297 299 302 302 304 306 306 307 308 308 306 306 306 307 309 311 311 311 310 311 311 310
274 276 278 280 282 286 289 291 293 295 299 301 300 300 298 298 299 302 303 305 306 306 306 307 307 305 306 306 307 309 310 312 310 310 309 312 314 312
276 279 281 284 287 288 290 292 295 298 299 299 300 301 301 299 303 304 305 306 305 306 307 306 305 306 307 307 308 312 312 313 313 312 311 311 311 310
Height
10635 10634 10632 10631 10628 10623 10621 10616 10611 10610 10607 10600 10596 10592 10588 10585 10584 10581 10576 10572 10568 10564 10559 10554 10539 10529 10520 10512 10503 10495 10484 10478 10469 10461 10453 10447 10444 10440
10620 10619 10617 10614 10611 10607 10602 10599 10596 10591 10589 10584 10578 10574 10571 10568 10564 10559 10554 10549 10545 10540 10533 10523 10510 10504 10496 10487 10478 10467 10460 10447 10441 10435 10432 10429 10427 10425
10603 10602 10599 10597 10594 10590 10585 10579 10576 10572 10570 10565 10559 10554 10552 10551 10544 10540 10531 10526 10523 10509 10500 10494 10485 10477 10468 10458 10453 10444 10431 10421 10416 10414 10414 10413 10409 10406
10583 10580 10578 10576 10573 10568 10565 10558 10554 10553 10550 10541 10540 10532 10531 10526 10519 10514 10507 10501 10492 10483 10477 10469 10460 10451 10445 10439 10426 10418 10410 10402 10400 10399 10396 10391 10387 10385
10564 10560 10557 10554 10552 10548 10542 10540 10535 10530 10527 10522 10518 10512 10508 10502 10498 10490 10484 10476 10468 10459 10451 10442 10435 10426 10419 10408 10399 10392 10388 10388 10382 10376 10372 10366 10361 10357
10543 10541 10542 10537 10532 10526 10521 10519 10511 10509 10506 10500 10495 10492 10486 10481 10476 10470 10459 10451 10443 10437 10428 10418 10410 10400 10391 10379 10372 10367 10361 10358 10353 10347 10341 10335 10328 10323
10523 10519 10518 10514 10506 10504 10500 10496 10493 10487 10482 10481 10473 10468 10463 10456 10451 10446 10440 10431 10422 10416 10405 10392 10387 10375 10360 10351 10347 10339 10332 10326 10319 10312 10306 10298 10293 10288
10497 10494 10494 10490 10487 10479 10484 10479 10473 10466 10465 10460 10457 10449 10445 10439 10433 10425 10419 10412 10403 10392 10386 10368 10358 10345 10333 10324 10315 10306 10299 10291 10283 10276 10269 10261 10252 10246
10473 10471 10471 10469 10468 10468 10460 10457 10449 10447 10443 10439 10436 10430 10425 10419 10413 10404 10397 10390 10381 10374 10368 10353 10336 10323 10310 10295 10281 10271 10263 10255 10246 10239 10229 10221 10211 10202
10456 10455 10451 10451 10451 10447 10441 10439 10435 10427 10424 10419 10417 10411 10404 10398 10391 10385 10374 10367 10356 10344 10338 10329 10319 10305 10290 10268 10250 10235 10227 10218 10212 10200 10189 10179 10173 10165
10438 10434 10434 10431 10431 10427 10422 10419 10416 10411 10407 10402 10396 10390 10382 10375 10368 10359 10353 10343 10332 10318 10304 10305 10293 10286 10269 10244 10219 10199 10191 10183 10174 10162 10151 10143 10138 10134
10422 10419 10414 10415 10412 10410 10407 10402 10396 10393 10388 10381 10377 10368 10362 10354 10346 10340 10327 10321 10307 10301 10284 10283 10263 10250 10247 10218 10192 10170 10161 10150 10135 10125 10116 10108 10103 10100
10403 10398 10397 10396 10394 10392 10390 10387 10383 10375 10370 10362 10355 10350 10340 10330 10327 10314 10304 10296 10281 10271 10261 10255 10241 10219 10201 10193 10175 10151 10138 10121 10103 10090 10080 10074 10070 10068
10384 10381 10379 10381 10378 10375 10373 10371 10367 10357 10353 10344 10337 10325 10316 10309 10299 10290 10279 10267 10254 10245 10234 10218 10206 10188 10172 10158 10144 10127 10111 10093 10078 10066 10055 10047 10043 10038
10367 10363 10365 10366 10360 10358 10357 10353 10346 10342 10332 10324 10314 10306 10299 10287 10277 10266 10255 10244 10224 10209 10199 10189 10175 10158 10142 10130 10117 10097 10087 10064 10053 10044 10034 10027 10024 10016
10349 10348 10347 10346 10346 10342 10337 10332 10328 10320 10311 10302 10295 10287 10278 10266 10255 10247 10232 10213 10198 10178 10161 10157 10143 10129 10112 10096 10085 10073 10057 10045 10035 10027 10016 10007 10006 9999
10330 10329 10330 10328 10325 10320 10316 10311 10305 10297 10289 10282 10276 10267 10256 10245 10233 10220 10203 10188 10176 10161 10137 10121 10115 10102 10084 10072 10059 10050 10036 10023 10019 10014 10001 9990 9990 9981
10309 10307 10307 10304 10301 10298 10294 10289 10282 10275 10268 10262 10254 10246 10236 10223 10208 10189 10176 10163 10150 10131 10116 10105 10090 10074 10057 10039 10043 10035 10019 10010 10001 9997 9990 9979 9971 9968
10286 10285 10285 10282 10279 10275 10271 10265 10259 10254 10247 10239 10231 10224 10212 10196 10180 10165 10152 10140 10123 10107 10092 10082 10069 10056 10040 10022 10011 10018 10001 9993 9985 9979 9974 9968 9957 9950
10266 10264 10263 10260 10257 10253 10248 10242 10237 10231 10224 10217 10209 10199 10186 10170 10155 10140 10128 10116 10099 10083 10067 10056 10049 10037 10025 10012 9999 9990 9993 9977 9968 9961 9955 9952 9946 9936
10246 10243 10240 10237 10234 10231 10226 10221 10215 10209 10202 10194 10185 10172 10160 10146 10130 10120 10107 10090 10076 10062 10047 10035 10026 10018 10008 9998 9990 9980 9974 9971 9957 9946 9938 9936 9932 9929
10225 10222 10219 10216 10212 10209 10205 10199 10194 10186 10179 10171 10161 10149 10134 10121 10109 10098 10082 10068 10053 10042 10028 10018 10010 10002 9995 9986 9978 9971 9960 9955 9951 9941 9929 9923 9918 9915
10202 10199 10197 10195 10191 10187 10182 10178 10172 10166 10158 10148 10136 10124 10111 10098 10087 10074 10060 10047 10036 10021 10011 10001 9996 9989 9982 9973 9967 9960 9951 9943 9936 9931 9926 9914 9909 9904